This is the latest recevied weather packets stored in our database for station/object K6POO-1. If no packets are shown the sender has not sent any weather packets the latest 10 day(s).
| Time | Temp. | Humidity | Pressure | Rain* | Wind** | Luminosity | Snow |
|---|---|---|---|---|---|---|---|
| 1778198458 | 16.67° C | 69% | 1017.2 hPa | 0 mm | - | 397 W/m² | - |
| 1778198155 | 16.67° C | 70% | 1017.1 hPa | 0 mm | - | 417 W/m² | - |
| 1778197852 | 16.67° C | 68% | 1017.3 hPa | 0 mm | - | 439 W/m² | - |
| 1778197548 | 17.22° C | 65% | 1017.1 hPa | 0 mm | - | 458 W/m² | - |
| 1778197245 | 17.78° C | 63% | 1017.2 hPa | 0 mm | - | 477 W/m² | - |
| 1778196942 | 17.78° C | 63% | 1017.2 hPa | 0 mm | - | 495 W/m² | - |
| 1778196641 | 18.33° C | 61% | 1017.2 hPa | 0 mm | - | 513 W/m² | - |
| 1778196336 | 18.33° C | 62% | 1017.3 hPa | 0 mm | - | 535 W/m² | - |
| 1778196034 | 17.78° C | 63% | 1017.3 hPa | 0 mm | - | 555 W/m² | - |
| 1778195730 | 17.78° C | 62% | 1017.5 hPa | 0 mm | - | 575 W/m² | - |
| 1778195428 | 17.78° C | 62% | 1017.5 hPa | 0 mm | - | 592 W/m² | - |
| 1778195124 | 17.78° C | 62% | 1017.4 hPa | 0 mm | - | 611 W/m² | - |
| 1778194821 | 17.78° C | 64% | 1017.4 hPa | 0 mm | - | 627 W/m² | - |
| 1778194516 | 17.78° C | 63% | 1017.7 hPa | 0 mm | - | 646 W/m² | - |
| 1778194212 | 17.78° C | 65% | 1017.7 hPa | 0 mm | - | 662 W/m² | - |
| 1778193908 | 18.33° C | 64% | 1017.6 hPa | 0 mm | - | 678 W/m² | - |
| 1778193605 | 18.33° C | 63% | 1017.6 hPa | 0 mm | - | 687 W/m² | - |
| 1778193300 | 18.33° C | 66% | 1017.6 hPa | 0 mm | - | 705 W/m² | - |
| 1778192998 | 18.33° C | 64% | 1017.5 hPa | 0 mm | - | 721 W/m² | - |
| 1778192695 | 18.89° C | 63% | 1017.8 hPa | 0 mm | - | 737 W/m² | - |
| 1778192391 | 18.89° C | 63% | 1017.7 hPa | 0 mm | - | 752 W/m² | - |
| 1778192088 | 18.33° C | 65% | 1017.7 hPa | 0 mm | - | 766 W/m² | - |
| 1778191785 | 17.78° C | 68% | 1017.9 hPa | 0 mm | - | 780 W/m² | - |
| 1778191482 | 18.33° C | 66% | 1017.9 hPa | 0 mm | - | 789 W/m² | - |
| 1778191179 | 17.78° C | 67% | 1017.8 hPa | 0 mm | - | 802 W/m² | - |
* Rain latest hour (hover to see other rain measurements)
** Current wind speed in m/s (hover to see current wind gust speed)